Retour au catalogue

GORIZONT 24

ActifCommunicationsGEO
NORAD 21759·PAYLOAD·🇷🇺 Russia

Lancé Oct 23, 1991 depuis Baikonur Cosmodrome

Loading…

TLE

FraisSource: Space-Track

Époque: Sep 13, 2026, 20:51 UTC

1 21759U 91074A   26256.86892912 -.00000074  00000-0  00000-0 0  9993
2 21759  13.9653 342.9094 0022260 269.5628  89.2443  0.98443631125820

Suivez GORIZONT 24 en temps réel avec AllMySat

Download on the App Store